Weather History for KBTP - February, 2013

Change the Weather History Date:

Friday, February 22, 2013

  Actual Average Record
Temperature  
Mean Temperature 26 °F -  
Max Temperature 32 °F 38 °F 62 °F (1983)
Min Temperature 19 °F 23 °F -3 °F (1978)
Degree Days  
Heating Degree Days 40    
Moisture  
Dew Point 22 °F    
Average Humidity 80    
Maximum Humidity 93    
Minimum Humidity 64    
Precipitation  
Precipitation 0.02 in - - ()
Sea Level Pressure  
Sea Level Pressure 30.07 in    
Wind  
Wind Speed 11 mph (East)    
Max Wind Speed 18 mph    
Max Gust Speed 24 mph    
Visibility 10 miles    
Events      
Averages and records for this station are not official NWS values.
T = Trace of Precipitation, MM = Missing Value Source: NWS Daily Summary

Daily Weather History Graph

Daily Weather History Graph

Search for Another Location

Airport or City:

Trip Planner

Search our weather history database for the weather conditions in past years. The results will help you decide how hot, cold, wet, or windy it might be!

Date:

Astronomy

Feb. 22, 2013 Rise Set
Actual Time 7:03 AM EST 6:03 PM EST
Civil Twilight 6:36 AM EST 6:30 PM EST
Nautical Twilight 6:04 AM EST 7:02 PM EST
Astronomical Twilight 5:32 AM EST 7:34 PM EST
Moon 3:12 PM EST (2/22) 4:48 AM EST (2/22)
Length of Visible Light 11h 54m
Length of Day
10h 59m
Waxing Gibbous, 90% of the Moon is Illuminated
Feb 22
Waxing Gibbous
Feb 25
Full
Mar 4
Last Quarter
Mar 11
New
Mar 19
First Quarter

Hourly Weather History & Observations

Time (EST) Temp. Windchill Dew Point Humidity Pressure Visibility Wind Dir Wind Speed Gust Speed Precip Events Conditions
12:15 AM 19.4 °F 7.9 °F 10.4 °F 68% 30.24 in 10.0 mi ENE 10.4 mph - N/A   Clear
12:35 AM 19.4 °F 7.9 °F 10.4 °F 68% 30.24 in 10.0 mi East 10.4 mph - N/A   Clear
12:55 AM 19.4 °F 8.6 °F 12.2 °F 74% 30.24 in 10.0 mi ENE 9.2 mph - N/A   Clear
1:15 AM 19.4 °F 10.4 °F 12.2 °F 74% 30.24 in 10.0 mi ENE 6.9 mph - N/A   Clear
1:55 AM 19.4 °F 8.6 °F 12.2 °F 74% 30.24 in 10.0 mi East 9.2 mph - N/A   Clear
2:15 AM 19.4 °F 7.9 °F 12.2 °F 74% 30.25 in 10.0 mi East 10.4 mph - N/A   Clear
2:35 AM 19.4 °F 7.2 °F 12.2 °F 74% 30.24 in 10.0 mi East 11.5 mph - N/A   Clear
2:55 AM 19.4 °F 7.2 °F 12.2 °F 74% 30.23 in 10.0 mi East 11.5 mph - N/A   Clear
3:15 AM 21.2 °F 8.9 °F 12.2 °F 68% 30.21 in 10.0 mi East 12.7 mph 19.6 mph N/A   Clear
3:35 AM 21.2 °F 8.3 °F 12.2 °F 68% 30.20 in 10.0 mi East 13.8 mph 20.7 mph N/A   Clear
3:55 AM 21.2 °F 8.9 °F 14.0 °F 74% 30.20 in 10.0 mi East 12.7 mph - N/A   Clear
4:15 AM 21.2 °F 8.3 °F 12.2 °F 68% 30.18 in 10.0 mi East 13.8 mph 19.6 mph N/A   Clear
4:35 AM 21.2 °F 8.3 °F 14.0 °F 74% 30.20 in 10.0 mi East 13.8 mph - N/A   Clear
4:55 AM 21.2 °F 6.4 °F 14.0 °F 74% 30.17 in 10.0 mi East 18.4 mph - N/A   Clear
5:15 AM 21.2 °F 7.3 °F 14.0 °F 74% 30.17 in 10.0 mi East 16.1 mph - N/A   Clear
5:35 AM 23.0 °F 10.1 °F 14.0 °F 68% 30.16 in 10.0 mi East 15.0 mph 19.6 mph N/A   Clear
5:55 AM 23.0 °F 9.2 °F 14.0 °F 68% 30.15 in 10.0 mi East 17.3 mph - N/A   Scattered Clouds
6:15 AM 24.8 °F 11.1 °F 14.0 °F 64% 30.14 in 10.0 mi East 18.4 mph 23.0 mph N/A   Overcast
6:35 AM 24.8 °F 11.9 °F 14.0 °F 64% 30.13 in 10.0 mi East 16.1 mph 23.0 mph N/A   Overcast
6:55 AM 24.8 °F 12.9 °F 15.8 °F 69% 30.12 in 10.0 mi East 13.8 mph 24.2 mph N/A   Overcast
7:15 AM 24.8 °F 11.5 °F 15.8 °F 69% 30.11 in 10.0 mi East 17.3 mph 24.2 mph N/A   Overcast
7:35 AM 24.8 °F 11.5 °F 15.8 °F 69% 30.09 in 10.0 mi East 17.3 mph 21.9 mph N/A   Overcast
7:55 AM 26.6 °F 13.8 °F 15.8 °F 64% 30.08 in 10.0 mi East 17.3 mph 20.7 mph N/A   Overcast
8:15 AM 26.6 °F 15.2 °F 15.8 °F 64% 30.09 in 10.0 mi East 13.8 mph 18.4 mph N/A   Overcast
8:35 AM 26.6 °F 14.3 °F 15.8 °F 64% 30.08 in 10.0 mi East 16.1 mph 23.0 mph N/A   Mostly Cloudy
8:55 AM 26.6 °F 13.8 °F 17.6 °F 69% 30.07 in 10.0 mi East 17.3 mph 24.2 mph N/A   Mostly Cloudy
9:15 AM 28.4 °F 17.0 °F 19.4 °F 69% 30.06 in 10.0 mi East 15.0 mph 21.9 mph N/A   Overcast
9:35 AM 28.4 °F 17.5 °F 19.4 °F 69% 30.05 in 10.0 mi East 13.8 mph 18.4 mph N/A   Overcast
9:55 AM 28.4 °F 18.0 °F 19.4 °F 69% 30.06 in 10.0 mi East 12.7 mph - N/A   Overcast
10:15 AM 30.2 °F 20.2 °F 21.2 °F 69% 30.05 in 10.0 mi East 12.7 mph 18.4 mph N/A   Overcast
10:35 AM 30.2 °F 20.2 °F 21.2 °F 69% 30.05 in 10.0 mi ESE 12.7 mph 21.9 mph N/A   Overcast
11:15 AM 30.2 °F 20.2 °F 24.8 °F 80% 30.04 in 10.0 mi ESE 12.7 mph 18.4 mph N/A   Overcast
11:35 AM 30.2 °F 20.8 °F 24.8 °F 80% 30.05 in 10.0 mi ESE 11.5 mph 20.7 mph N/A   Overcast
11:55 AM 30.2 °F 20.2 °F 26.6 °F 86% 30.05 in 5.0 mi ESE 12.7 mph 17.3 mph N/A   Overcast
12:15 PM 30.2 °F 21.3 °F 26.6 °F 86% 30.04 in 10.0 mi ESE 10.4 mph - N/A   Overcast
12:35 PM 30.2 °F 20.8 °F 26.6 °F 86% 30.03 in 5.0 mi ESE 11.5 mph 17.3 mph N/A   Overcast
12:55 PM 30.2 °F 20.2 °F 26.6 °F 86% 30.03 in 9.0 mi ESE 12.7 mph - N/A   Overcast
1:15 PM 30.2 °F 21.3 °F 28.4 °F 93% 30.03 in 5.0 mi ESE 10.4 mph - N/A   Overcast
1:35 PM 30.2 °F 21.3 °F 28.4 °F 93% 30.02 in 6.0 mi East 10.4 mph - N/A   Overcast
1:55 PM 30.2 °F 20.8 °F 28.4 °F 93% 30.01 in 8.0 mi East 11.5 mph - N/A   Overcast
2:15 PM 30.2 °F 21.9 °F 28.4 °F 93% 30.00 in 9.0 mi East 9.2 mph - N/A   Overcast
2:35 PM 30.2 °F 21.3 °F 28.4 °F 93% 30.00 in 9.0 mi East 10.4 mph - N/A   Overcast
2:55 PM 30.2 °F 21.9 °F 28.4 °F 93% 30.00 in 8.0 mi ESE 9.2 mph - N/A   Overcast
3:15 PM 30.2 °F 22.6 °F 28.4 °F 93% 30.00 in 10.0 mi ESE 8.1 mph - 0.01 in   Overcast
3:35 PM 32.0 °F 24.2 °F 30.2 °F 93% 30.00 in 10.0 mi East 9.2 mph - 0.01 in   Overcast
3:55 PM 32.0 °F 24.2 °F 28.4 °F 87% 30.00 in 10.0 mi East 9.2 mph - 0.01 in   Overcast
4:15 PM 32.0 °F 24.8 °F 28.4 °F 87% 29.99 in 10.0 mi ESE 8.1 mph - N/A   Overcast
4:35 PM 32.0 °F 25.6 °F 28.4 °F 87% 29.99 in 10.0 mi East 6.9 mph - N/A   Overcast
4:55 PM 32.0 °F 23.0 °F 28.4 °F 87% 29.99 in 10.0 mi East 11.5 mph - 0.01 in   Overcast
5:15 PM 32.0 °F 26.4 °F 28.4 °F 87% 29.99 in 10.0 mi East 5.8 mph - N/A   Overcast
5:35 PM 32.0 °F 25.6 °F 28.4 °F 87% 30.01 in 10.0 mi East 6.9 mph - N/A   Overcast
5:55 PM 32.0 °F 26.4 °F 28.4 °F 87% 30.01 in 10.0 mi ENE 5.8 mph - N/A   Overcast
6:15 PM 32.0 °F 24.2 °F 28.4 °F 87% 30.01 in 10.0 mi East 9.2 mph - N/A   Overcast
6:35 PM 32.0 °F 26.4 °F 28.4 °F 87% 30.00 in 10.0 mi East 5.8 mph - N/A   Overcast
6:55 PM 32.0 °F 24.8 °F 28.4 °F 87% 30.00 in 10.0 mi East 8.1 mph - N/A   Overcast
7:15 PM 32.0 °F 26.4 °F 28.4 °F 87% 30.00 in 10.0 mi East 5.8 mph - N/A   Overcast
7:35 PM 32.0 °F 26.4 °F 28.4 °F 87% 30.02 in 10.0 mi ENE 5.8 mph - N/A   Overcast
7:55 PM 32.0 °F 26.4 °F 28.4 °F 87% 30.01 in 10.0 mi East 5.8 mph - N/A   Overcast
8:15 PM 32.0 °F 28.7 °F 28.4 °F 87% 30.02 in 10.0 mi East 3.5 mph - N/A   Overcast
8:35 PM 32.0 °F 27.5 °F 28.4 °F 87% 30.02 in 10.0 mi NE 4.6 mph - N/A   Overcast
8:55 PM 32.0 °F 26.4 °F 28.4 °F 87% 30.03 in 10.0 mi East 5.8 mph - N/A   Overcast
9:15 PM 32.0 °F 26.4 °F 28.4 °F 87% 30.02 in 10.0 mi East 5.8 mph - N/A   Overcast
9:35 PM 32.0 °F 25.6 °F 28.4 °F 87% 30.02 in 10.0 mi East 6.9 mph - N/A   Overcast
9:55 PM 32.0 °F 25.6 °F 28.4 °F 87% 30.01 in 10.0 mi East 6.9 mph - N/A   Overcast
10:15 PM 32.0 °F 25.6 °F 28.4 °F 87% 30.01 in 10.0 mi East 6.9 mph - N/A   Overcast
10:35 PM 32.0 °F 26.4 °F 28.4 °F 87% 30.00 in 10.0 mi East 5.8 mph - N/A   Overcast
10:55 PM 32.0 °F 25.6 °F 28.4 °F 87% 30.00 in 10.0 mi East 6.9 mph - N/A   Overcast
11:15 PM 32.0 °F 24.8 °F 28.4 °F 87% 29.99 in 10.0 mi East 8.1 mph - N/A   Overcast
11:35 PM 32.0 °F 25.6 °F 28.4 °F 87% 30.00 in 10.0 mi East 6.9 mph - N/A   Overcast
11:55 PM 32.0 °F 26.4 °F 28.4 °F 87% 30.00 in 10.0 mi ESE 5.8 mph - N/A   Overcast